This demonstration page uses our WeatherBlox Daily Observations layout. Learn more.

Left ArrowRight Arrow

30.21309, -93.2044

Hourly Observations for August 15, 2022

Temp ( °F °C ) Dew Point ( °F °C ) Humidity (%) Winds ( mph kmh ) Pressure ( in mb ) Visibility ( mi km ) Precip ( " mm )
12:15 am 00:15 Clear 77 25.2 74 23.3 89 89 S 3 6 29.97 1015 10 16 0.00 0.00
12:35 am 00:35 Clear 76 24.7 73 23 90 90 S 3 6 29.97 1015 10 16 0.00 0.00
12:55 am 00:55 Clear 76 24.5 74 23.2 92 92 Calm 29.97 1015 10 16 0.00 0.00
1:15 am 01:15 Clear 77 24.8 74 23.3 91 91 Calm 29.96 1015 10 16 0.00 0.00
1:35 am 01:35 Clear 77 25 74 23.3 90 90 Calm 29.96 1015 10 16 0.00 0.00
1:55 am 01:55 Clear 76 24.7 74 23.3 92 92 Calm 29.95 1014 10 16 0.00 0.00
2:15 am 02:15 Clear 76 24.6 74 23.3 92 92 Calm 29.95 1014 10 16 0.00 0.00
2:35 am 02:35 Clear 76 24.7 74 23.4 92 92 Calm 29.94 1014 10 16 0.00 0.00
2:55 am 02:55 Clear 76 24.5 74 23.3 93 93 Calm 29.94 1014 10 16 0.00 0.00
3:15 am 03:15 Clear 76 24.2 73 23 93 93 Calm 29.95 1014 7 11 0.00 0.00
3:35 am 03:35 Clear with Mist and Fog 75 24 73 23 94 94 Calm 29.94 1014 7 11 0.00 0.00
3:55 am 03:55 Clear 76 24.2 74 23.2 94 94 Calm 29.95 1014 7 11 0.00 0.00
4:15 am 04:15 Clear with Mist and Fog 75 24 73 23 94 94 Calm 29.94 1014 5 8 0.00 0.00
4:35 am 04:35 Clear with Mist and Fog 76 24.2 74 23.3 95 95 Calm 29.95 1014 7 11 0.00 0.00
4:55 am 04:55 Clear 76 24.2 74 23.3 95 95 Calm 29.95 1014 7 11 0.00 0.00
5:15 am 05:15 Clear with Mist and Fog 76 24.2 74 23.3 95 95 Calm 29.95 1014 7 11 0.00 0.00
5:35 am 05:35 Clear with Mist and Fog 75 24.1 74 23.2 95 95 Calm 29.95 1014 5 8 0.00 0.00
6:00 am 06:00 Mostly Clear 75 24 73 23 94 94 Calm 29.95 1014 10 16 0.00 0.00
6:47 am 06:47 Mostly Sunny 75 24 73 23 94 94 Calm 29.97 1015 10 16 0.00 0.00
7:45 am 07:45 Mostly Sunny 77 25 75 24 94 94 Calm 29.98 1015 10 16 0.00 0.00
8:50 am 08:50 Mostly Sunny 82 28 75 24 79 79 Calm 29.99 1016 10 16 0.00 0.00
9:46 am 09:46 Partly Cloudy 84 29 73 23 70 70 SSW 5 7 29.99 1016 10 16 0.00 0.00
10:45 am 10:45 Partly Cloudy 88 31 73 23 63 63 Calm 30.00 1016 10 16 0.00 0.00
11:45 am 11:45 Partly Cloudy 90 32 72 22 56 56 S 5 7 29.99 1016 10 16 0.00 0.00
12:46 pm 12:46 Partly Cloudy 91 33 72 22 53 53 SSW 6 9 29.98 1015 10 16 0.00 0.00
1:55 pm 13:55 Partly Cloudy 91 33 72 22 53 53 SSE 8 13 29.96 1014 10 16 0.00 0.00
2:55 pm 14:55 Partly Cloudy 91 33 72 22 53 53 SSE 8 13 29.94 1014 10 16 0.00 0.00
3:50 pm 15:50 Partly Cloudy 93 34 70 21 47 47 SW 8 13 29.93 1013 10 16 0.00 0.00
4:50 pm 16:50 Partly Cloudy 93 34 72 22 50 50 S 12 19 29.91 1013 10 16 0.00 0.00
5:53 pm 17:53 Mostly Sunny 91 33 70 21 49 49 SSW 12 19 29.90 1012 10 16 0.00 0.00
6:53 pm 18:53 Mostly Sunny 90 32 72 22 56 56 SW 13 20 29.90 1012 10 16 0.00 0.00
7:51 pm 19:51 Mostly Sunny 86 30 72 22 62 62 SW 6 9 29.91 1013 10 16 0.00 0.00
9:50 pm 21:50 Mostly Clear 82 28 73 23 74 74 SW 6 9 29.92 1013 10 16 0.00 0.00
10:15 pm 22:15 Clear 83 28.2 75 23.8 77 77 SW 6 9 29.93 1013 10 16 0.00 0.00
10:35 pm 22:35 Clear 82 28 75 23.8 78 78 SSW 6 9 29.93 1013 10 16 0.00 0.00
10:55 pm 22:55 Clear 82 27.6 75 23.8 80 80 SSW 6 9 29.94 1014 10 16 0.00 0.00
11:15 pm 23:15 Clear 77 25.2 74 23.3 89 89 SSW 5 7 29.94 1014 10 16 0.00 0.00
11:35 pm 23:35 Clear 78 25.7 75 23.7 89 89 SSW 6 9 29.94 1014 10 16 0.00 0.00
11:55 pm 23:55 Clear 81 27.4 75 23.9 81 81 SW 6 9 29.94 1014 10 16 0.00 0.00

Powered by AerisWeather